Wilder Trauco

Chief Scout - Universitario
20 Nov 2027
Saturday
Process

Personality

Adaptability (7) Ambition (1) Controversy (14) Loyalty (13) Pressure (5) Professionalism (5) Sportsmanship (2) Temperament (16)

Profile

Coaching Style Democratic
License Continental A
Determination 5
Man Management 7
Motivating 10
Discipline 4
Job Satisfaction
85%
Fatigue
0%
Role Chief Scout
Wage 75.9K p/w
Contract 14.03.2029

Performance

Behaviour Good
Training Effectiveness
37%
Player Development
45%
Injury Prevention
50%
Tactical Implementation
40%

Recent Events

Attended a recruitment meeting now
Assessed a player now
Assessed a player now
Assessed a player 7d ago
Assessed a player 7d ago
Assessed a player 7d ago
Assessed a player 7d ago
Assessed a player 7d ago

Currently Monitoring

168
Player Club Status Ability Confidence Watched Last Observed Latest Vote
Mateo Mendoza Godoy Cruz Active 127 / 130 40% 2 19.11.2027 -
Hernán de la Fuente Instituto Active 128 / 124 40% 1 19.11.2027 -
Marcos López San Martín Active 133 / 130 40% 5 18.11.2027 -
Gastón Benedetti Estudiantes Active 136 / 136 40% 3 18.11.2027 -
Facundo Altamira Godoy Cruz Active 122 / 120 40% 4 16.11.2027 -
Bruno Leyes Godoy Cruz Active 132 / 122 40% 3 16.11.2027 -
Yhormar Hurtado Atletico Bucaramanga Active 130 / 123 40% 2 16.11.2027 -
Jermein Peña Junior Active 138 / 126 40% 1 16.11.2027 -
Iñaki Larthirigoyen San Telmo Active 109 / 112 40% 2 14.11.2027 -
Alex Luna Instituto Active 120 / 135 40% 1 14.11.2027 -
Patricio Moyano Defensores Active 117 / 121 40% 5 13.11.2027 -
Alejandro Piedrahita Deportivo Pereira Active 134 / 123 40% 1 13.11.2027 -
Dylan Borrero America de Cali Active 120 / 127 40% 1 12.11.2027 -
Cristian Barrios Junior Active 115 / 131 40% 1 12.11.2027 -
Emerson Batalla Atletico Bucaramanga Active 138 / 116 40% 2 11.11.2027 -
Johan Martínez Deportivo Cali Active 129 / 123 40% 1 11.11.2027 -
Lucas Ríos Atlanta Active 117 / 110 40% 3 10.11.2027 -
Julian Angulo Deportes Tolima Active 119 / 129 40% 1 10.11.2027 -
Agustín Hausch Caracas Active 134 / 128 40% 7 09.11.2027 -
David Barbona Defensa y Justicia Active 126 / 119 40% 2 09.11.2027 -
Bryan Castrillón Independiente Medellin Active 116 / 124 40% 2 08.11.2027 -
Aarón Molinas Defensa y Justicia Active 139 / 135 40% 1 07.11.2027 -
Alejo Dramisino Atlanta Active 119 / 111 40% 1 07.11.2027 -
Franco Cristaldo Talleres Active 118 / 118 40% 5 06.11.2027 -
Jan Carlos Ángulo Deportes Tolima Active 135 / 123 40% 1 05.11.2027 -
Edwin Mosquera Santa Fe Active 121 / 114 40% 1 05.11.2027 -
Edwar López Deportes Tolima Active 120 / 120 40% 1 05.11.2027 -
Gastón Togni Defensa y Justicia Active 140 / 118 40% 2 02.11.2027 -
Jhomier Guerrero Millonarios Active 114 / 121 40% 1 02.11.2027 -
Matko Miljevic Racing Club Active 127 / 134 40% 3 01.11.2027 -
Santiago Montiel Independiente Active 122 / 128 40% 2 30.10.2027 -
Diego Hernández Aguilas Doradas Active 130 / 118 40% 1 30.10.2027 -
Samuel Velásquez Atletico Nacional Active 121 / 119 40% 1 30.10.2027 -
Marcelino Moreno Lanús Active 125 / 119 40% 2 28.10.2027 -
Jaminton Campaz Rosario Central Active 137 / 122 40% 2 28.10.2027 -
Matías Reali San Lorenzo Active 127 / 129 40% 2 27.10.2027 -
Jhonatan Candia Barracas Central Active 117 / 117 40% 4 25.10.2027 -
Sheyko Studer Independiente Rivadavia Active 131 / 131 40% 2 25.10.2027 -
Alejo Tabares All Boys Active 125 / 118 40% 2 25.10.2027 -
Lucas Arce Godoy Cruz Active 118 / 130 40% 4 23.10.2027 -
Franco Díaz Temperley Active 134 / 132 40% 2 23.10.2027 -
Rick Talleres Active 114 / 121 40% 3 22.10.2027 -
Jonás Acevedo Instituto Active 117 / 131 40% 1 20.10.2027 -
Brais Méndez Columbus Crew Active 156 / 139 40% 1 20.10.2027 -
Imanol Machuca Independiente Active 119 / 134 40% 3 19.10.2027 -
Juan Saborido Platense Active 126 / 123 40% 1 19.10.2027 -
Augusto Schott Talleres Active 126 / 132 40% 4 18.10.2027 -
Allan Saint-Maximin Charlotte Football Club Active 150 / 157 40% 1 17.10.2027 -
Vicente Poggi Godoy Cruz Active 119 / 124 40% 2 16.10.2027 -
Santiago González Tigre Active 141 / 125 40% 2 16.10.2027 -
Franco Nicola Liverpool Montevideo Active 113 / 124 40% 1 16.10.2027 -
Joaquín García Vélez Active 123 / 121 40% 1 16.10.2027 -
Nicolás Fernández Belgrano Active 123 / 129 40% 2 14.10.2027 -
Ramiro Hernandes Belgrano Active 116 / 123 40% 6 12.10.2027 -
Manuel Insaurralde San Lorenzo Active 116 / 114 40% 2 09.10.2027 -
Leo Suárez Boston River Active 108 / 115 40% 1 09.10.2027 -
Gastón Hernández San Lorenzo Active 134 / 118 40% 3 08.10.2027 -
Claudio Bravo Argentinos Juniors Active 115 / 129 40% 1 08.10.2027 -
Federico Pereira Huracán Active 128 / 138 40% 2 02.10.2027 -
Nicolás Demartini Temperley Active 129 / 117 40% 2 02.10.2027 -
Gonzalo Abrego Godoy Cruz Active 111 / 131 40% 1 29.09.2027 -
Alexis Cuello San Lorenzo Active 120 / 125 40% 1 27.09.2027 -
Felipe Peña Biafore Lanús Active 140 / 123 40% 1 25.09.2027 -
Juan Bisanz Huracán Active 122 / 135 40% 1 24.09.2027 -
Ulises Ortegoza Talleres Active 114 / 123 40% 2 23.09.2027 -
Santiago Longo Belgrano Active 125 / 132 40% 1 23.09.2027 -
Elías López Aldosivi Active 120 / 113 40% 1 22.09.2027 -
Adalberto Peñaranda Deportivo Tachira Active 114 / 113 40% 2 21.09.2027 -
Alejo Cruz Juventud Active 114 / 116 40% 4 20.09.2027 -
Lucas Souto Defensa y Justicia Active 119 / 128 40% 2 18.09.2027 -
Alan Lescano Argentinos Juniors Active 145 / 131 40% 2 16.09.2027 -
Francisco González Metilli Belgrano Active 136 / 133 40% 2 14.09.2027 -
Tomás Escalante Plaza Colonia Active 123 / 129 40% 1 12.09.2027 -
Nahuel Furtado Wanderers Active 130 / 133 40% 1 10.09.2027 -
Federico Martínez Liverpool Montevideo Active 131 / 120 40% 1 05.09.2027 -
Darwin Casseres Atletico Venezuela Active 124 / 121 40% 1 03.09.2027 -
Jhon Murillo America de Cali Active 114 / 110 40% 3 02.09.2027 -
Hernán Toledo Albion Active 108 / 113 40% 1 25.08.2027 -
Adrián Spörle Belgrano Active 109 / 114 40% 1 20.08.2027 -
Julio Alonso Huesca Active 139 / 134 40% 1 14.08.2027 -
Sorba Thomas Stoke City Active 145 / 123 40% 2 08.08.2027 -
Tariq Lamptey Queens Park Rangers Active 155 / 141 40% 1 08.08.2027 -
Guille Rosas Gijón Active 125 / 131 40% 1 05.08.2027 -
Stephy Mavididi Leicester City Active 112 / 127 40% 1 05.08.2027 -
Isma Ruiz Córdoba Active 151 / 139 40% 4 04.08.2027 -
Jovon Makama Norwich City Active 145 / 131 40% 1 04.08.2027 -
Demarai Gray Birmingham Active 130 / 116 40% 1 31.07.2027 -
Welington Southampton Active 125 / 121 40% 1 31.07.2027 -
Oladapo Afolayan Blackburn Rovers Active 128 / 121 40% 3 30.07.2027 -
Zian Flemming Ipswich Town Active 135 / 128 40% 1 30.07.2027 -
Zeidane Inoussa Swansea City Active 109 / 143 40% 1 29.07.2027 -
Mathias Jørgensen Blackburn Rovers Active 139 / 126 40% 1 29.07.2027 -
Louie Barry Sheffield Wednesday Active 133 / 123 40% 1 27.07.2027 -
Todd Cantwell Blackburn Rovers Active 146 / 125 40% 1 24.07.2027 -
Rumarn Burrell Queens Park Rangers Active 149 / 127 40% 1 20.07.2027 -
Edoardo Bove Watford Active 143 / 132 40% 1 21.06.2027 -
Jacques Ekomié Wrexham Active 115 / 125 40% 1 21.06.2027 -
Agustín Sández Rosario Central Active 135 / 113 40% 1 17.12.2026 -
Oussama Idrissi Ferencvaros Active 154 / 155 40% 1 15.12.2026 -
Esequiel Barco Spartak Moscow Active 137 / 151 40% 1 15.12.2026 -
Gonzalo Bordón Independiente Active 96 / 113 40% 1 09.12.2026 -
Nicolás Ortiz Leganés Active 111 / 111 40% 1 09.12.2026 -
Agustín Bustinduy Central Norte Active 88 / 110 40% 1 07.12.2026 -
Jonathan De Irastorza Levante Active 116 / 129 40% 1 06.12.2026 -
Facundo Infante Talleres Active 87 / 97 40% 1 04.12.2026 -
Marcos López Banfield Active 107 / 111 40% 1 04.12.2026 -
Luciano Barros Ayala Independiente Active 98 / 98 40% 1 03.12.2026 -
Sebastián Flores Rayo Vallecano Active 99 / 108 40% 1 03.12.2026 -
Mauro Carrizo Atlético Tucumán Active 102 / 104 40% 2 02.12.2026 -
Tobías Ramírez Sevilla Active 117 / 119 40% 1 02.12.2026 -
Ezequiel Moya Chacarita Juniors Active 91 / 102 40% 1 01.12.2026 -
Diego Pavia Barracas Central Active 99 / 99 40% 1 30.11.2026 -
Troy Parrott Betis Active 132 / 134 40% 4 29.11.2026 -
David Volk Dinamo Makhachkala Active 106 / 119 40% 1 29.11.2026 -
Patrick Schulte Columbus Crew Active 135 / 109 40% 1 29.11.2026 -
Brayan Gil Baltika Active 133 / 122 40% 1 29.11.2026 -
Marcelo Torres Gimnasia La Plata Active 133 / 122 40% 2 27.11.2026 -
Ammar Ramadan DAC Dunajska Streda Active 124 / 123 40% 2 27.11.2026 -
Martin Vantruba Spartak Trnava Active 128 / 90 40% 2 27.11.2026 -
Matt Freese New York City Active 150 / 111 40% 1 27.11.2026 -
Cristopher Varela Deportivo La Guaira Active 115 / 124 40% 5 25.11.2026 -
Leopold Wahlstedt Rosenborg Active 118 / 132 40% 4 24.11.2026 -
Williams Mahlangu SuperSport United Active 90 / 101 40% 3 21.11.2026 -
Frankarlos Benítez Caracas Active 95 / 113 40% 4 20.11.2026 -
Manu Nieto Andorra Active 120 / 101 40% 2 19.11.2026 -
Mateusz Kochalski Qarabag Active 135 / 126 40% 1 19.11.2026 -
Camilo Durán Bloemfontein Celtic Active 108 / 130 40% 2 18.11.2026 -
Alexei Dominguez Pachuca Active 129 / 106 40% 1 18.11.2026 -
Svetoslav Vutsov Levski Active 125 / 133 40% 1 11.11.2026 -
Viktor Johansson Stoke City Active 139 / 115 40% 2 08.11.2026 -
Emanuel Sittaro Instituto Active 107 / 90 40% 1 07.11.2026 -
Hugo Gallardo Veracruz Active 80 / 95 40% 2 06.11.2026 -
Lukas Gütlbauer Wolfsberger AC Active 120 / 129 40% 2 05.11.2026 -
Albert Posiadała Molde Active 118 / 133 40% 1 03.11.2026 -
Luke Southwood Bristol Rovers Active 82 / 94 40% 3 02.11.2026 -
Sipho Chaine Orlando Pirates Active 95 / 123 40% 1 28.10.2026 -
Lucas Bruera Carabobo Active 130 / 107 40% 2 26.10.2026 -
Veljko Birmančević Ferencvaros Active 131 / 148 40% 2 21.10.2026 -
Arthur Beroe Active 131 / 131 40% 1 20.10.2026 -
Liel Abada Charlotte Football Club Active 134 / 132 40% 1 19.10.2026 -
Victor Aznar Cádiz Active 102 / 118 40% 2 14.10.2026 -
Mathías Bernatene Liverpool Montevideo Active 92 / 88 40% 4 13.10.2026 -
Francisco Vergara Gimnasia La Plata Active 83 / 89 40% 1 11.10.2026 -
Oscar Ferraresi Llaneros Active 116 / 119 40% 3 10.10.2026 -
Oscar Osorio Atletico Venezuela Active 103 / 108 40% 2 09.10.2026 -
Marcos Camarda Santiago Wanderers Active 102 / 113 40% 1 09.10.2026 -
Sandi Elsnik NK Domzale Active 103 / 119 40% 1 08.10.2026 -
Chuchu Ramírez Nacional Active 126 / 141 40% 1 30.09.2026 -
Moisés Gallo Caracas Active 95 / 102 40% 4 26.09.2026 -
Dominik Takáč Slovan Bratislava Active 128 / 135 40% 2 20.09.2026 -
Franco Carretero Deportivo Lara Active 93 / 91 40% 2 16.09.2026 -
Edarlyn Reyes Arsenal Tula Active 89 / 88 40% 1 16.09.2026 -
Ani Ozoemena Rivers United Active 75 / 106 40% 1 13.09.2026 -
Erik Botheim Viking Active 108 / 122 40% 1 08.09.2026 -
César Magallan Estudiantes de Merida Active 94 / 99 40% 1 08.09.2026 -
Thiago Villalba Vélez Active 104 / 109 40% 1 08.09.2026 -
Armstrong Oko-Flex Levski Active 95 / 127 40% 1 05.09.2026 -
Diego Enríquez Sporting Cristal Active 111 / 124 40% 1 04.09.2026 -
Evgeny Staver Rubin Active 115 / 128 40% 1 03.09.2026 -
Eric Ramírez Carabobo Active 97 / 120 40% 2 31.08.2026 -
José Balza Deportivo Tachira Active 96 / 111 40% 1 31.08.2026 -
Oscar Hedvall Valerenga Active 128 / 102 40% 1 26.08.2026 -
Francisco Galván Deportivo Municipal Lost 119 / 121 40% 1 25.08.2026 -
Enzo Larrosa Independiente Medellin Active 114 / 101 40% 1 19.08.2026 -
Bojan Radulović Huddersfield Town Active 120 / 131 40% 1 18.08.2026 -
Genaro Rossi San Martín SJ Active 101 / 108 40% 1 18.08.2026 -
David Agudelo Depor Active 84 / 87 40% 2 08.08.2026 -
Evidence Billiat Ajax Cape Town Active 88 / 123 40% 1 08.08.2026 -